Time,TemperatureF,DewpointF,PressureIn,WindDirection,WindDirectionDegrees,WindSpeedMPH,WindSpeedGustMPH,Humidity,HourlyPrecipIn,Conditions,Clouds,dailyrainin,SolarRadiationWatts/m^2,SoftwareType,DateUTC
2013-06-29 00:10:00,77.3,74.0,29.86,SW,216,2.0,8.0,90,0.00,,,0.00,0,weatherlink.com 1.10,2013-06-29 04:10:00,
2013-06-29 00:25:00,77.1,74.0,29.85,SW,229,2.0,7.0,89,0.00,,,0.00,0,weatherlink.com 1.10,2013-06-29 04:25:00,
2013-06-29 00:40:00,77.0,74.0,29.85,SW,232,1.0,7.0,90,0.00,,,0.00,0,weatherlink.com 1.10,2013-06-29 04:40:00,
2013-06-29 00:55:00,77.0,74.0,29.84,SW,231,3.0,8.0,90,0.00,,,0.00,0,weatherlink.com 1.10,2013-06-29 04:55:00,
2013-06-29 01:10:00,77.0,74.0,29.84,South,190,5.0,9.0,91,0.00,,,0.00,0,weatherlink.com 1.10,2013-06-29 05:10:00,
2013-06-29 01:25:00,77.2,75.0,29.83,SW,229,4.0,7.0,91,0.00,,,0.00,0,weatherlink.com 1.10,2013-06-29 05:25:00,
2013-06-29 01:40:00,77.5,75.0,29.83,SW,227,3.0,7.0,92,0.00,,,0.00,0,weatherlink.com 1.10,2013-06-29 05:40:00,
2013-06-29 01:55:00,77.5,75.0,29.82,South,169,5.0,10.0,92,0.00,,,0.00,0,weatherlink.com 1.10,2013-06-29 05:55:00,
2013-06-29 02:10:00,77.5,75.0,29.81,SSW,194,1.0,11.0,92,0.00,,,0.00,0,weatherlink.com 1.10,2013-06-29 06:10:00,
2013-06-29 02:25:00,77.4,75.0,29.80,South,180,6.0,7.0,93,0.00,,,0.00,0,weatherlink.com 1.10,2013-06-29 06:25:00,
2013-06-29 02:40:00,77.4,75.0,29.81,South,179,7.0,10.0,93,0.00,,,0.00,0,weatherlink.com 1.10,2013-06-29 06:40:00,
2013-06-29 02:59:00,77.3,75.0,29.82,SSW,203,5.0,9.0,93,0.00,,,0.00,0,weatherlink.com 1.10,2013-06-29 06:59:00,
2013-06-29 03:11:00,77.1,75.0,29.81,SW,217,2.0,7.0,93,0.00,,,0.00,0,weatherlink.com 1.10,2013-06-29 07:11:00,
2013-06-29 03:26:00,77.1,75.0,29.82,SW,236,3.0,8.0,93,0.00,,,0.00,0,weatherlink.com 1.10,2013-06-29 07:26:00,
2013-06-29 03:41:00,77.1,75.0,29.82,SSW,207,3.0,8.0,93,0.00,,,0.00,0,weatherlink.com 1.10,2013-06-29 07:41:00,
2013-06-29 03:56:00,77.3,75.0,29.82,South,186,2.0,10.0,93,0.00,,,0.00,0,weatherlink.com 1.10,2013-06-29 07:56:00,
2013-06-29 04:11:00,77.3,75.0,29.82,WSW,239,2.0,6.0,93,0.00,,,0.00,0,weatherlink.com 1.10,2013-06-29 08:11:00,
2013-06-29 04:26:00,77.1,75.0,29.82,SSW,209,2.0,8.0,92,0.00,,,0.00,0,weatherlink.com 1.10,2013-06-29 08:26:00,
2013-06-29 04:41:00,77.1,75.0,29.82,SW,229,3.0,7.0,92,0.00,,,0.00,0,weatherlink.com 1.10,2013-06-29 08:41:00,
2013-06-29 04:56:00,77.1,75.0,29.82,SW,225,4.0,9.0,92,0.00,,,0.00,0,weatherlink.com 1.10,2013-06-29 08:56:00,
2013-06-29 05:11:00,77.2,75.0,29.82,SW,234,4.0,7.0,92,0.00,,,0.00,0,weatherlink.com 1.10,2013-06-29 09:11:00,
2013-06-29 05:26:00,77.2,75.0,29.82,WSW,238,4.0,7.0,92,0.00,,,0.00,0,weatherlink.com 1.10,2013-06-29 09:26:00,
2013-06-29 05:41:00,77.2,75.0,29.82,South,182,2.0,9.0,93,0.00,,,0.00,0,weatherlink.com 1.10,2013-06-29 09:41:00,
2013-06-29 05:56:00,77.4,75.0,29.83,SW,217,2.0,7.0,93,0.00,,,0.00,0,weatherlink.com 1.10,2013-06-29 09:56:00,
2013-06-29 06:11:00,77.3,75.0,29.83,SSW,213,1.0,11.0,93,0.00,,,0.00,0,weatherlink.com 1.10,2013-06-29 10:11:00,
2013-06-29 06:26:00,77.2,75.0,29.84,SSW,196,3.0,7.0,94,0.00,,,0.00,0,weatherlink.com 1.10,2013-06-29 10:26:00,
2013-06-29 06:41:00,77.2,75.0,29.83,SSW,198,4.0,11.0,94,0.00,,,0.00,7,weatherlink.com 1.10,2013-06-29 10:41:00,
2013-06-29 06:56:00,77.3,76.0,29.84,SSW,204,2.0,9.0,94,0.00,,,0.00,19,weatherlink.com 1.10,2013-06-29 10:56:00,
2013-06-29 07:11:00,77.6,76.0,29.84,SW,226,1.0,8.0,94,0.00,,,0.00,30,weatherlink.com 1.10,2013-06-29 11:11:00,
2013-06-29 07:26:00,77.8,76.0,29.84,SW,217,3.0,9.0,93,0.00,,,0.00,39,weatherlink.com 1.10,2013-06-29 11:26:00,
2013-06-29 07:41:00,77.9,76.0,29.85,West,269,0.0,9.0,93,0.00,,,0.00,54,weatherlink.com 1.10,2013-06-29 11:41:00,
2013-06-29 07:56:00,78.2,76.0,29.85,SSW,202,2.0,9.0,93,0.00,,,0.00,109,weatherlink.com 1.10,2013-06-29 11:56:00,
2013-06-29 08:11:00,78.7,76.0,29.85,SSW,199,0.0,8.0,92,0.00,,,0.00,132,weatherlink.com 1.10,2013-06-29 12:11:00,
2013-06-29 08:26:00,78.8,76.0,29.85,ESE,113,2.0,12.0,92,0.00,,,0.00,95,weatherlink.com 1.10,2013-06-29 12:26:00,
2013-06-29 08:41:00,79.4,77.0,29.84,SW,218,2.0,11.0,91,0.00,,,0.00,281,weatherlink.com 1.10,2013-06-29 12:41:00,
2013-06-29 08:56:00,80.2,77.0,29.84,ESE,118,3.0,11.0,90,0.00,,,0.00,345,weatherlink.com 1.10,2013-06-29 12:56:00,
2013-06-29 09:11:00,80.9,77.0,29.84,South,190,1.0,8.0,88,0.00,,,0.00,387,weatherlink.com 1.10,2013-06-29 13:11:00,
2013-06-29 09:26:00,81.7,77.0,29.84,SE,144,0.0,11.0,86,0.00,,,0.00,441,weatherlink.com 1.10,2013-06-29 13:26:00,
2013-06-29 09:41:00,82.7,78.0,29.83,SSW,193,6.0,9.0,85,0.00,,,0.00,501,weatherlink.com 1.10,2013-06-29 13:41:00,
2013-06-29 09:56:00,83.0,77.0,29.84,SSW,197,5.0,10.0,83,0.00,,,0.00,315,weatherlink.com 1.10,2013-06-29 13:56:00,
2013-06-29 10:11:00,83.7,77.0,29.84,SW,224,4.0,14.0,80,0.00,,,0.00,591,weatherlink.com 1.10,2013-06-29 14:11:00,
2013-06-29 10:26:00,84.1,77.0,29.84,SW,217,14.0,15.0,78,0.00,,,0.00,761,weatherlink.com 1.10,2013-06-29 14:26:00,
2013-06-29 10:41:00,84.1,77.0,29.84,SW,216,9.0,14.0,79,0.00,,,0.00,306,weatherlink.com 1.10,2013-06-29 14:41:00,
2013-06-29 10:57:00,79.3,74.0,29.86,WSW,258,2.0,17.0,83,0.16,,,0.16,49,weatherlink.com 1.10,2013-06-29 14:57:00,
2013-06-29 11:12:00,75.2,73.0,29.84,WSW,242,1.0,9.0,93,0.23,,,0.23,236,weatherlink.com 1.10,2013-06-29 15:12:00,
2013-06-29 11:27:00,74.9,73.0,29.85,SW,229,2.0,6.0,95,0.24,,,0.24,197,weatherlink.com 1.10,2013-06-29 15:27:00,
2013-06-29 11:42:00,75.3,74.0,29.85,SW,236,3.0,11.0,95,0.24,,,0.24,241,weatherlink.com 1.10,2013-06-29 15:42:00,
2013-06-29 11:57:00,75.8,74.0,29.85,SW,215,3.0,10.0,94,0.05,,,0.24,244,weatherlink.com 1.10,2013-06-29 15:57:00,
2013-06-29 12:12:00,76.8,75.0,29.85,SSW,202,0.0,6.0,93,0.01,,,0.24,260,weatherlink.com 1.10,2013-06-29 16:12:00,
2013-06-29 12:27:00,77.7,75.0,29.85,WNW,289,0.0,5.0,91,0.00,,,0.24,315,weatherlink.com 1.10,2013-06-29 16:27:00,
2013-06-29 12:42:00,79.0,76.0,29.85,WSW,246,0.0,7.0,89,0.00,,,0.24,403,weatherlink.com 1.10,2013-06-29 16:42:00,
2013-06-29 12:57:00,80.6,75.0,29.84,SW,232,3.0,9.0,84,0.00,,,0.24,773,weatherlink.com 1.10,2013-06-29 16:57:00,
2013-06-29 13:12:00,83.1,77.0,29.84,WSW,238,2.0,8.0,81,0.00,,,0.24,650,weatherlink.com 1.10,2013-06-29 17:12:00,
2013-06-29 13:27:00,85.6,78.0,29.83,North,349,1.0,7.0,78,0.00,,,0.24,501,weatherlink.com 1.10,2013-06-29 17:27:00,
2013-06-29 13:42:00,84.7,77.0,29.82,WSW,244,2.0,8.0,78,0.00,,,0.24,529,weatherlink.com 1.10,2013-06-29 17:42:00,
2013-06-29 13:57:00,85.9,78.0,29.81,WSW,255,2.0,8.0,77,0.00,,,0.24,856,weatherlink.com 1.10,2013-06-29 17:57:00,
2013-06-29 14:12:00,86.8,78.0,29.81,SW,228,1.0,7.0,75,0.00,,,0.24,715,weatherlink.com 1.10,2013-06-29 18:12:00,
2013-06-29 14:27:00,84.7,77.0,29.81,WSW,251,6.0,8.0,77,0.00,,,0.24,485,weatherlink.com 1.10,2013-06-29 18:27:00,
2013-06-29 14:42:00,84.5,76.0,29.80,SW,227,3.0,4.0,76,0.00,,,0.24,573,weatherlink.com 1.10,2013-06-29 18:42:00,
2013-06-29 14:57:00,84.4,76.0,29.81,SSW,206,5.0,11.0,76,0.00,,,0.24,394,weatherlink.com 1.10,2013-06-29 18:57:00,
2013-06-29 15:12:00,84.3,76.0,29.80,SW,219,8.0,15.0,76,0.00,,,0.24,364,weatherlink.com 1.10,2013-06-29 19:12:00,
2013-06-29 15:27:00,85.1,77.0,29.79,SSW,192,5.0,12.0,77,0.00,,,0.24,591,weatherlink.com 1.10,2013-06-29 19:27:00,
2013-06-29 15:42:00,86.3,77.0,29.78,SW,214,0.0,12.0,73,0.00,,,0.24,744,weatherlink.com 1.10,2013-06-29 19:42:00,
2013-06-29 15:57:00,88.0,77.0,29.79,SSW,207,2.0,8.0,70,0.00,,,0.24,206,weatherlink.com 1.10,2013-06-29 19:57:00,
2013-06-29 16:12:00,86.7,76.0,29.78,SSW,207,11.0,13.0,70,0.00,,,0.24,225,weatherlink.com 1.10,2013-06-29 20:12:00,
2013-06-29 16:27:00,86.5,75.0,29.78,SW,227,6.0,13.0,68,0.00,,,0.24,229,weatherlink.com 1.10,2013-06-29 20:27:00,
2013-06-29 16:42:00,87.5,74.0,29.77,WSW,243,4.0,14.0,65,0.00,,,0.24,591,weatherlink.com 1.10,2013-06-29 20:42:00,
2013-06-29 16:57:00,88.2,74.0,29.77,West,262,2.0,14.0,63,0.00,,,0.24,513,weatherlink.com 1.10,2013-06-29 20:57:00,
2013-06-29 17:12:00,87.0,75.0,29.78,WSW,244,5.0,15.0,67,0.00,,,0.24,113,weatherlink.com 1.10,2013-06-29 21:12:00,
2013-06-29 17:27:00,85.3,77.0,29.78,NW,312,0.0,7.0,75,0.00,,,0.24,207,weatherlink.com 1.10,2013-06-29 21:27:00,
2013-06-29 17:42:00,85.1,76.0,29.78,West,262,2.0,6.0,74,0.00,,,0.24,227,weatherlink.com 1.10,2013-06-29 21:42:00,
2013-06-29 17:57:00,85.1,74.0,29.78,NW,310,3.0,9.0,69,0.00,,,0.24,183,weatherlink.com 1.10,2013-06-29 21:57:00,
2013-06-29 18:12:00,85.2,74.0,29.78,SSW,200,4.0,10.0,68,0.00,,,0.24,367,weatherlink.com 1.10,2013-06-29 22:12:00,
2013-06-29 18:27:00,85.4,75.0,29.77,SSW,207,4.0,9.0,71,0.00,,,0.24,257,weatherlink.com 1.10,2013-06-29 22:27:00,
2013-06-29 18:42:00,85.3,75.0,29.77,SW,234,5.0,8.0,72,0.00,,,0.24,237,weatherlink.com 1.10,2013-06-29 22:42:00,
2013-06-29 18:57:00,85.5,76.0,29.78,SW,224,7.0,9.0,73,0.00,,,0.24,169,weatherlink.com 1.10,2013-06-29 22:57:00,
2013-06-29 19:12:00,84.1,75.0,29.78,SSW,197,2.0,11.0,74,0.00,,,0.24,123,weatherlink.com 1.10,2013-06-29 23:12:00,
2013-06-29 19:27:00,83.0,75.0,29.79,SW,215,3.0,9.0,77,0.00,,,0.24,74,weatherlink.com 1.10,2013-06-29 23:27:00,
2013-06-29 19:42:00,81.9,74.0,29.80,SW,216,8.0,11.0,78,0.00,,,0.24,67,weatherlink.com 1.10,2013-06-29 23:42:00,
2013-06-29 19:57:00,80.9,75.0,29.80,South,186,5.0,9.0,81,0.00,,,0.24,32,weatherlink.com 1.10,2013-06-29 23:57:00,
2013-06-29 20:12:00,80.1,74.0,29.80,SW,230,2.0,11.0,82,0.00,,,0.24,12,weatherlink.com 1.10,2013-06-30 00:12:00,
2013-06-29 20:27:00,79.4,74.0,29.80,SSW,192,3.0,10.0,83,0.00,,,0.24,0,weatherlink.com 1.10,2013-06-30 00:27:00,
2013-06-29 20:42:00,78.9,74.0,29.81,South,178,2.0,10.0,85,0.00,,,0.24,0,weatherlink.com 1.10,2013-06-30 00:42:00,
2013-06-29 20:57:00,78.7,74.0,29.81,South,191,2.0,13.0,86,0.00,,,0.24,0,weatherlink.com 1.10,2013-06-30 00:57:00,
2013-06-29 21:12:00,78.6,75.0,29.81,SSW,201,1.0,8.0,87,0.00,,,0.24,0,weatherlink.com 1.10,2013-06-30 01:12:00,
2013-06-29 21:27:00,78.7,75.0,29.82,ESE,119,3.0,12.0,87,0.00,,,0.24,0,weatherlink.com 1.10,2013-06-30 01:27:00,
2013-06-29 21:42:00,78.8,75.0,29.82,ESE,123,1.0,7.0,88,0.00,,,0.24,0,weatherlink.com 1.10,2013-06-30 01:42:00,
2013-06-29 21:57:00,78.6,75.0,29.82,SSE,162,2.0,8.0,88,0.00,,,0.24,0,weatherlink.com 1.10,2013-06-30 01:57:00,
2013-06-29 22:12:00,78.5,75.0,29.82,SW,217,1.0,10.0,88,0.00,,,0.24,0,weatherlink.com 1.10,2013-06-30 02:12:00,
2013-06-29 22:27:00,78.4,75.0,29.83,SW,222,4.0,7.0,89,0.00,,,0.24,0,weatherlink.com 1.10,2013-06-30 02:27:00,
2013-06-29 22:42:00,78.3,75.0,29.83,SW,236,3.0,9.0,88,0.00,,,0.24,0,weatherlink.com 1.10,2013-06-30 02:42:00,
2013-06-29 22:57:00,78.2,74.0,29.83,SW,225,4.0,9.0,88,0.00,,,0.24,0,weatherlink.com 1.10,2013-06-30 02:57:00,
2013-06-29 23:12:00,78.2,75.0,29.83,SSW,203,3.0,8.0,89,0.00,,,0.24,0,weatherlink.com 1.10,2013-06-30 03:12:00,
2013-06-29 23:27:00,78.2,75.0,29.84,WSW,247,4.0,10.0,89,0.00,,,0.24,0,weatherlink.com 1.10,2013-06-30 03:27:00,
2013-06-29 23:42:00,78.1,75.0,29.84,West,277,3.0,10.0,90,0.00,,,0.24,0,weatherlink.com 1.10,2013-06-30 03:42:00,
2013-06-29 23:57:00,78.0,75.0,29.83,SE,126,2.0,10.0,90,0.00,,,0.24,0,weatherlink.com 1.10,2013-06-30 03:57:00,